Terug naar catalogus

FENGYUN 1C DEB *

ActiefPO
NORAD 47005·DEBRIS·🇨🇳 China

Gelanceerd May 10, 1999 vanaf Taiyuan Satellite Launch Center

Loading…

Volgende Passages (komende 24 uur)

TLE

VerouderendSource: Space-Track

Epoch: Sep 7, 2026, 13:49 UTC

1 47005U 99025FAF 26250.57611354  .00002701  00000-0  14452-2 0  9996
2 47005  99.6000   3.3826 0062235 216.6202 156.9904 14.13111906865629

Volg FENGYUN 1C DEB * in realtime met AllMySat

Download on the App Store